Regional Weather Roundup
Issued by NWS

Home | Current Version | Previous Version | Text Only | Print | Product List | Glossary Off
Versions: 1 2 3 4 5 6 7 8 9 10 11 12 13 14 15 16 17 18 19 20 21 22 23 24 25 26 27 28 29 30 31 32 33 34 35 36 37 38 39 40 41 42 43 44 45 46 47 48 49 50

000
ASUS45 KABQ 290801
RWRNM
WEATHER ROUNDUP FOR NEW MEXICO
NATIONAL WEATHER SERVICE ALBUQUERQUE NM
100 AM MST MON DEC 29 2014

NOTE: "FAIR" MEANS FEW OR NO CLOUDS BELOW 12,000 FEET AGL WITH NO
       SIGNIFICANT WEATHER OR OBSTRUCTIONS TO VISION.

      THIS PRODUCT IS RELEASED AS TWO VERSIONS.  ONE VERSION NEAR
      THE TOP OF THE HOUR CONTAINING PRELIMINARY DATA FROM ALBUQUERQUE
      AND OTHER STATIONS.  A FINAL VERSION WITH ADDITIONAL DATA IS
      ISSUED ABOUT 10 MINUTES AFTER THE HOUR.

NMZ501-503-504-510>518-290900-
NORTHWEST PLATEAU/NORTHCENTRAL MOUNTAINS

CITY           SKY/WX    TMP DP  RH WIND       PRES   REMARKS
FARMINGTON     CLEAR      9   4  80 NE5       30.03F WCI   1
SANTA FE       CLEAR     14   6  70 N6        30.01F WCI   5
TAOS           PTCLDY     5   0  78 N8        30.00F WCI  -8

$$
NMZ402-403-502-505>509-290900-
WESTCENTRAL MOUNTAINS/SOUTHWEST MOUNTAINS

CITY           SKY/WX    TMP DP  RH WIND       PRES   REMARKS
GALLUP         CLEAR      3  -2  79 CALM      30.04F
GRANTS         CLEAR      7   4  86 N3        30.04F
SILVER CITY    CLEAR     36  10  35 NW13      30.08F WCI  27

$$
NMZ407-409-411-412-290900-
SOUTHERN DESERTS

CITY           SKY/WX    TMP DP  RH WIND       PRES   REMARKS
LORDSBURG      FAIR      28  21  74 W6        30.11S WCI  22
DEMING         CLEAR     32  21  64 CALM      30.09F
HOLLOMAN AFB   CLEAR     34  22  62 SE7       30.06F WCI  27
ALAMOGORDO     CLEAR     32  19  59 S6        30.07F WCI  26
T OR C         CLEAR     25  14  63 NW6       30.04F WCI  18

$$
NMZ519>523-290900-
CENTRAL VALLEYS/CENTRAL HIGHLANDS

CITY           SKY/WX    TMP DP  RH WIND       PRES   REMARKS
ALBUQUERQUE    PTCLDY    23  12  62 E8        30.05F WCI  14
DOUBLE EAGLE   PTCLDY    16   7  68 CALM      30.04S
MORIARTY ARPT  FAIR       9   5  83 NW9       30.02F WCI  -4
CLINES CORNERS PTCLDY    13   4  67 NW16      29.96S WCI  -3
BELEN          FAIR      13  13  97 CALM      30.05F
SOCORRO        FAIR      24  11  59 NE3       30.05F

$$
NMZ524>526-539-540-290900-
SOUTHCENTRAL MOUNTAINS

CITY           SKY/WX    TMP DP  RH WIND       PRES   REMARKS
RUIDOSO        NOT AVBL

$$
NMZ527>531-290900-
NORTHEAST HIGHLANDS/NORTHEAST PLAINS

CITY           SKY/WX    TMP DP  RH WIND       PRES   REMARKS
LAS VEGAS      PTCLDY    19   6  57 S5        29.95S WCI  12
RATON          CLEAR     13   5  70 NE6       29.94S WCI   4
CLAYTON        CLEAR     23  10  57 W9        29.94S WCI  13

$$
NMZ532>537-290900-
EASTCENTRAL PLAINS

CITY           SKY/WX    TMP DP  RH WIND       PRES   REMARKS
TUCUMCARI      CLEAR     30  13  49 SW7       29.97S WCI  23
CANNON AFB     CLEAR     29  10  45 NW8       29.98F WCI  21
CLOVIS AIRPORT PTCLDY    30   9  40 W13       29.97S WCI  20

$$
NMZ028-029-538-290900-
SOUTHEAST PLAINS

CITY           SKY/WX    TMP DP  RH WIND       PRES   REMARKS
ROSWELL        CLOUDY    31  20  63 NE5       29.99F WCI  26
ARTESIA        CLOUDY    41  19  42 W6        30.01F
CARLSBAD       MOCLDY    34  29  82 CALM      29.99F
HOBBS          MOCLDY    32  32 100 CALM      30.00F


$$



USA.gov is the U.S. government's official web portal to all federal, state and local government web resources and services.